Regional Weather Roundup
Issued by NWS

Home | Current Version | Previous Version | Graphics & Text | Print | Product List | Glossary On
Versions: 1 2 3 4 5 6 7 8 9 10 11 12 13 14 15 16 17 18 19 20 21 22 23 24 25 26 27 28 29 30 31 32 33 34 35 36 37 38 39 40 41 42 43 44 45 46 47 48 49 50
000
ASUS43 KIND 301759
RWRIN

WEATHER ROUNDUP FOR INDIANA
NATIONAL WEATHER SERVICE INDIANAPOLIS IN
200 PM EDT THU JUL 30 2015

NOTE: "FAIR" INDICATES FEW OR NO CLOUDS BELOW 12,000 FEET WITH NO
SIGNIFICANT WEATHER AND/OR OBSTRUCTIONS TO VISIBILITY.

* - STATION DOES NOT REPORT WEATHER SUCH AS PRECIPITATION OR FOG.

+ - STATION NOT QUALITY CONTROLLED BY THE NATIONAL WEATHER SERVICE.
    USE DATA WITH CAUTION...ESPECIALLY DEWPOINT AND RELATIVE
    HUMIDITY OBSERVATIONS.

INZ001>003-010>013-019-020-301900-
NORTHWEST INDIANA

CITY           SKY/WX    TMP DP  RH WIND       PRES   REMARKS
GARY /AIRPORT/ MOSUNNY   86  52  30 NW14      30.07S
RENSSELAER +   SUNNY     82  55  39 NW12G18   30.09S

$$

LMZ046-743>745-301900-
SOUTHERN LAKE MICHIGAN

STATION/POSITION TIME  TEMP    WIND        PRES    WAVE
                       AIR SEA DIR/SP/G            HT
                 (UTC) (F)     (DEG/KT/KT) (MB)    (FT)
BURNS HARBOR     1700   76     280/  5/  6 1018.6S
MICHIGAN CITY    1700   74     230/ 10/ 12   N/A
5NW MICH CITY    1700   74 73  270/  8/ 10   N/A     2

$$

INZ004-005-014>016-021>024-301900-
NORTH CENTRAL INDIANA

CITY           SKY/WX    TMP DP  RH WIND       PRES   REMARKS
ELKHART        SUNNY     82  50  32 NW16G23   30.06R
GOSHEN         SUNNY     82  54  37 NW16G22   30.05S
6HR MIN TEMP:  65; 6HR MAX TEMP:  82;

SOUTH BEND     SUNNY     83  55  38 NW14G23   30.07R
6HR MIN TEMP:  66; 6HR MAX TEMP:  84; 6HR PCP: TRACE;


$$

INZ006>009-017-018-025>027-301900-
NORTHEAST INDIANA

CITY           SKY/WX    TMP DP  RH WIND       PRES   REMARKS
ANGOLA *+      SUNNY     82  57  42 NW10      30.04S
FORT WAYNE     MOSUNNY   83  56  39 NW14      30.06S
6HR MIN TEMP:  66; 6HR MAX TEMP:  83;


$$

INZ028-029-035-036-043>045-051>053-301900-
WEST CENTRAL INDIANA

CITY           SKY/WX    TMP DP  RH WIND       PRES   REMARKS
CRAWFORDSVL +  SUNNY     80  54  41 NW10        N/A
6HR MIN TEMP:  63; 6HR MAX TEMP:  80;

GREENCASTLE +  SUNNY     81  52  36 NW7       30.13R
LAFAYETTE      MOSUNNY   83  57  41 NW10G21   30.09S
6HR MIN TEMP:  63; 6HR MAX TEMP:  83;

TERRE HAUTE    SUNNY     86  58  38 W10       30.12F
6HR MIN TEMP:  67; 6HR MAX TEMP:  86;


$$

INZ030>032-037>040-046>048-054>057-064-065-301900-
CENTRAL INDIANA

CITY           SKY/WX    TMP DP  RH WIND       PRES   REMARKS
ANDERSON       SUNNY     82  46  28 N17G23    30.10S
GREENWOOD *+   SUNNY     82  52  34 NW8       30.11S
INDIANAPOLIS   MOSUNNY   83  55  38 NW12G23   30.10S
6HR MIN TEMP:  69; 6HR MAX TEMP:  84;

-EAGLE CREEK   SUNNY     83  58  42 NW16G22   30.10S
6HR MIN TEMP:  68; 6HR MAX TEMP:  83;

KOKOMO *+      SUNNY     84  57  39 NW12      30.08S
6HR MIN TEMP:  64; 6HR MAX TEMP:  84;

MT COMFORT *+  SUNNY     84  45  24 NW14      30.10S
SHELBYVILLE    SUNNY     85  59  41 NW5       30.09F
6HR MIN TEMP:  68; 6HR MAX TEMP:  85;


$$

INZ033-034-041-042-049-050-058-059-301900-
EAST CENTRAL INDIANA

CITY           SKY/WX    TMP DP  RH WIND       PRES   REMARKS
MUNCIE         SUNNY     82  57  42 NW12G21   30.08S
6HR MIN TEMP:  65; 6HR MAX TEMP:  82;


$$

INZ060-061-067>069-081>083-085>088-301900-
SOUTHWEST INDIANA

CITY           SKY/WX    TMP DP  RH WIND       PRES   REMARKS
EVANSVILLE     SUNNY     87  59  38 N7        30.14S
6HR MIN TEMP:  71; 6HR MAX TEMP:  87;

HUNTINGBURG *+ SUNNY     84  61  45 N8        30.13S
6HR MIN TEMP:  68; 6HR MAX TEMP:  84;


$$

INZ062-063-066-070>080-084-089>092-301900-
SOUTH CENTRAL AND SOUTHEAST INDIANA

CITY           SKY/WX    TMP DP  RH WIND       PRES   REMARKS
BLOOMINGTON    SUNNY     83  57  41 MISG      30.13S
6HR MIN TEMP:  67; 6HR MAX TEMP:  83;

MADISON *+     SUNNY     82  50  32 NW6       30.12F
SEYMOUR +      SUNNY     84  57  39 NW7       30.10S

$$




USA.gov is the U.S. government's official web portal to all federal, state and local government web resources and services.